| time (UTC) | temp C | wind direction | speed KPH | gust KPH | rain 1hr cm | rain 24hr cm | rain mn cm | humidity % | barometer mb |
| 20260505140413 | 20 | 90 | 3.2 | 11.3 | 0.00 | 0.00 | 0.00 | 76 | 1020.1 |
| 20260505140136 | 20 | 200 | 1.6 | 11.3 | 0.00 | 0.00 | 0.00 | 76 | 1020.1 |
| 20260505124402 | 14 | 194 | 1.6 | 8.0 | 0.00 | 0.00 | 0.00 | 92 | 1019.9 |
| 20260505124119 | 14 | 228 | 1.6 | 6.4 | 0.00 | 0.00 | 0.00 | 93 | 1019.9 |
| 20260505123356 | 13 | 219 | 1.6 | 6.4 | 0.00 | 0.00 | 0.00 | 94 | 1019.8 |
| 20260505122853 | 13 | 207 | 1.6 | 4.8 | 0.00 | 0.00 | 0.00 | 95 | 1019.8 |
| 20260505122352 | 13 | 250 | 1.6 | 4.8 | 0.00 | 0.00 | 0.00 | 96 | 1019.8 |
| 20260505121851 | 12 | 199 | 1.6 | 4.8 | 0.00 | 0.00 | 0.00 | 97 | 1019.8 |
| 20260505121614 | 12 | 199 | 0.0 | 3.2 | 0.00 | 0.00 | 0.00 | 97 | 1019.8 |
| 20260505120852 | 11 | 199 | 0.0 | 3.2 | 0.00 | 0.00 | 0.00 | 97 | 1019.8 |
| 20260505120353 | 11 | 199 | 0.0 | 3.2 | 0.00 | 0.00 | 0.00 | 97 | 1019.8 |
| 20260505115851 | 11 | 199 | 0.0 | 3.2 | 0.00 | 0.00 | 0.00 | 97 | 1019.7 |
| 20260505115344 | 10 | 199 | 0.0 | 0.0 | 0.00 | 0.00 | 0.00 | 96 | 1019.8 |
| 20260505115100 | 10 | 199 | 0.0 | 0.0 | 0.00 | 0.00 | 0.00 | 96 | 1019.8 |
| 20260505114332 | 10 | 199 | 0.0 | 0.0 | 0.00 | 0.00 | 0.00 | 96 | 1019.8 |
| 20260505113826 | 10 | 199 | 0.0 | 0.0 | 0.00 | 0.00 | 0.00 | 95 | 1019.7 |
| 20260505113536 | 10 | 199 | 0.0 | 0.0 | 0.00 | 0.00 | 0.00 | 96 | 1019.7 |
| 20260505112814 | 10 | 199 | 0.0 | 0.0 | 0.00 | 0.00 | 0.00 | 95 | 1019.6 |
| 20260505112533 | 9 | 199 | 0.0 | 0.0 | 0.00 | 0.00 | 0.00 | 95 | 1019.6 |
| 20260505111802 | 9 | 199 | 0.0 | 0.0 | 0.00 | 0.00 | 0.00 | 94 | 1019.6 |
| 20260505111256 | 9 | 199 | 0.0 | 0.0 | 0.00 | 0.00 | 0.00 | 94 | 1019.6 |
| 20260505110750 | 9 | 199 | 0.0 | 0.0 | 0.00 | 0.00 | 0.00 | 93 | 1019.4 |
| 20260505110244 | 9 | 199 | 0.0 | 0.0 | 0.00 | 0.00 | 0.00 | 93 | 1019.5 |
| 20260505102156 | 9 | 199 | 0.0 | 0.0 | 0.00 | 0.00 | 0.00 | 92 | 1019.0 |
| 20260505101650 | 9 | 199 | 0.0 | 0.0 | 0.00 | 0.00 | 0.00 | 93 | 1018.9 |
| 20260505101145 | 9 | 199 | 0.0 | 0.0 | 0.00 | 0.00 | 0.00 | 93 | 1018.8 |
| 20260505100645 | 9 | 199 | 0.0 | 0.0 | 0.00 | 0.00 | 0.00 | 93 | 1018.8 |
| 20260505100147 | 9 | 199 | 0.0 | 0.0 | 0.00 | 0.00 | 0.00 | 92 | 1018.8 |
| 20260505095911 | 9 | 199 | 0.0 | 0.0 | 0.00 | 0.00 | 0.00 | 92 | 1018.8 |
| 20260505095144 | 9 | 199 | 0.0 | 0.0 | 0.00 | 0.00 | 0.00 | 92 | 1018.8 |
| 20260505095136 | 9 | 199 | 0.0 | 0.0 | 0.00 | 0.00 | 0.00 | 92 | 1018.8 |
| 20260505094141 | 9 | 199 | 0.0 | 0.0 | 0.00 | 0.00 | 0.00 | 92 | 1018.8 |
| 20260505093641 | 9 | 199 | 0.0 | 0.0 | 0.00 | 0.00 | 0.00 | 91 | 1018.9 |
| 20260505093142 | 9 | 199 | 0.0 | 0.0 | 0.00 | 0.00 | 0.00 | 91 | 1018.8 |
| 20260505092641 | 9 | 199 | 0.0 | 0.0 | 0.00 | 0.00 | 0.00 | 92 | 1018.7 |
| 20260505092138 | 10 | 199 | 0.0 | 0.0 | 0.00 | 0.00 | 0.00 | 92 | 1018.7 |
| 20260505091638 | 10 | 199 | 0.0 | 0.0 | 0.00 | 0.00 | 0.00 | 91 | 1018.6 |
| 20260505091136 | 10 | 199 | 0.0 | 0.0 | 0.00 | 0.00 | 0.00 | 91 | 1018.5 |
| 20260505090634 | 10 | 199 | 0.0 | 0.0 | 0.00 | 0.00 | 0.00 | 91 | 1018.5 |
| 20260505090359 | 10 | 199 | 0.0 | 0.0 | 0.00 | 0.00 | 0.00 | 92 | 1018.5 |
| 20260505085633 | 10 | 199 | 0.0 | 0.0 | 0.00 | 0.00 | 0.00 | 91 | 1018.5 |
| 20260505085132 | 10 | 199 | 0.0 | 0.0 | 0.00 | 0.00 | 0.00 | 91 | 1018.5 |
| 20260505084634 | 10 | 199 | 0.0 | 0.0 | 0.00 | 0.00 | 0.00 | 91 | 1018.4 |
| 20260505084133 | 10 | 199 | 0.0 | 0.0 | 0.00 | 0.00 | 0.00 | 91 | 1018.4 |
| 20260505083635 | 10 | 199 | 0.0 | 0.0 | 0.00 | 0.00 | 0.00 | 91 | 1018.3 |
| 20260505083402 | 10 | 199 | 0.0 | 0.0 | 0.00 | 0.00 | 0.00 | 91 | 1018.2 |
| 20260505082633 | 10 | 199 | 0.0 | 0.0 | 0.00 | 0.00 | 0.00 | 91 | 1018.2 |
| 20260505082133 | 10 | 199 | 0.0 | 0.0 | 0.00 | 0.00 | 0.00 | 91 | 1018.1 |
| 20260505081839 | 10 | 199 | 0.0 | 0.0 | 0.00 | 0.00 | 0.00 | 91 | 1018.1 |
| 20260505081724 | 10 | 199 | 0.0 | 0.0 | 0.00 | 0.00 | 0.00 | 91 | 1018.2 |
| 20260505080634 | 10 | 199 | 0.0 | 0.0 | 0.00 | 0.00 | 0.00 | 91 | 1018.1 |
| 20260505080131 | 10 | 199 | 0.0 | 0.0 | 0.00 | 0.00 | 0.00 | 91 | 1018.1 |
| 20260505075526 | 10 | 199 | 0.0 | 0.0 | 0.00 | 0.00 | 0.00 | 90 | 1018.0 |
| 20260505075028 | 10 | 199 | 0.0 | 0.0 | 0.00 | 0.00 | 0.00 | 90 | 1018.0 |
| 20260505074527 | 10 | 199 | 0.0 | 0.0 | 0.00 | 0.00 | 0.00 | 90 | 1018.1 |
| 20260505074028 | 10 | 199 | 0.0 | 0.0 | 0.00 | 0.00 | 0.00 | 89 | 1018.1 |
| 20260505073527 | 10 | 199 | 0.0 | 0.0 | 0.00 | 0.00 | 0.00 | 89 | 1018.1 |
| 20260505073028 | 10 | 199 | 0.0 | 0.0 | 0.00 | 0.00 | 0.00 | 89 | 1018.1 |
| 20260505072752 | 10 | 199 | 0.0 | 0.0 | 0.00 | 0.00 | 0.00 | 89 | 1018.1 |
| 20260505072027 | 10 | 199 | 0.0 | 0.0 | 0.00 | 0.00 | 0.00 | 89 | 1018.1 |
| 20260505071528 | 10 | 199 | 0.0 | 0.0 | 0.00 | 0.00 | 0.00 | 89 | 1018.0 |
| 20260505071027 | 11 | 199 | 0.0 | 0.0 | 0.00 | 0.00 | 0.00 | 88 | 1018.2 |
| 20260505070521 | 11 | 199 | 0.0 | 0.0 | 0.00 | 0.00 | 0.00 | 88 | 1018.1 |
| 20260505070015 | 11 | 199 | 0.0 | 0.0 | 0.00 | 0.00 | 0.00 | 88 | 1018.3 |
| 20260505065509 | 11 | 199 | 0.0 | 0.0 | 0.00 | 0.00 | 0.00 | 88 | 1018.1 |
| 20260505065003 | 11 | 199 | 0.0 | 0.0 | 0.00 | 0.00 | 0.00 | 88 | 1018.2 |
| 20260505064457 | 11 | 199 | 0.0 | 0.0 | 0.00 | 0.00 | 0.00 | 88 | 1018.1 |
| 20260505063951 | 11 | 199 | 0.0 | 0.0 | 0.00 | 0.00 | 0.00 | 88 | 1018.2 |
| 20260505063445 | 11 | 199 | 0.0 | 0.0 | 0.00 | 0.00 | 0.00 | 87 | 1018.3 |
| 20260505063159 | 11 | 199 | 0.0 | 0.0 | 0.00 | 0.00 | 0.00 | 86 | 1018.4 |
| 20260505062433 | 11 | 199 | 0.0 | 0.0 | 0.00 | 0.00 | 0.00 | 86 | 1018.5 |
| 20260505061927 | 11 | 199 | 0.0 | 0.0 | 0.00 | 0.00 | 0.00 | 86 | 1018.5 |
| 20260505061421 | 11 | 199 | 0.0 | 0.0 | 0.00 | 0.00 | 0.00 | 86 | 1018.5 |
| 20260505060916 | 11 | 199 | 0.0 | 0.0 | 0.00 | 0.00 | 0.00 | 85 | 1018.5 |
| 20260505060409 | 12 | 199 | 0.0 | 0.0 | 0.00 | 0.00 | 0.00 | 85 | 1018.6 |
| 20260505060121 | 12 | 199 | 0.0 | 0.0 | 0.00 | 0.00 | 0.00 | 85 | 1018.6 |
| 20260505055357 | 12 | 199 | 0.0 | 0.0 | 0.00 | 0.00 | 0.00 | 83 | 1018.6 |
| 20260505055114 | 12 | 199 | 0.0 | 0.0 | 0.00 | 0.00 | 0.00 | 83 | 1018.6 |
| 20260505054345 | 12 | 199 | 0.0 | 0.0 | 0.00 | 0.00 | 0.00 | 83 | 1018.7 |
| 20260505053840 | 12 | 199 | 0.0 | 0.0 | 0.00 | 0.00 | 0.00 | 83 | 1018.8 |
| 20260505053333 | 12 | 199 | 0.0 | 0.0 | 0.00 | 0.00 | 0.00 | 83 | 1018.8 |
| 20260505053053 | 12 | 199 | 0.0 | 0.0 | 0.00 | 0.00 | 0.00 | 82 | 1018.8 |
| 20260505052321 | 13 | 199 | 0.0 | 0.0 | 0.00 | 0.00 | 0.00 | 82 | 1018.8 |
| 20260505051815 | 13 | 199 | 0.0 | 0.0 | 0.00 | 0.00 | 0.00 | 82 | 1018.8 |
| 20260505051309 | 13 | 199 | 0.0 | 0.0 | 0.00 | 0.00 | 0.00 | 81 | 1018.8 |
| 20260505050809 | 13 | 199 | 0.0 | 0.0 | 0.00 | 0.00 | 0.00 | 80 | 1018.8 |
| 20260505050307 | 13 | 199 | 0.0 | 0.0 | 0.00 | 0.00 | 0.00 | 81 | 1018.9 |
| 20260505041754 | 15 | 199 | 0.0 | 0.0 | 0.00 | 0.00 | 0.00 | 75 | 1018.9 |
| 20260505041252 | 15 | 199 | 0.0 | 0.0 | 0.00 | 0.00 | 0.00 | 75 | 1019.0 |
| 20260505040749 | 15 | 199 | 0.0 | 0.0 | 0.00 | 0.00 | 0.00 | 74 | 1018.9 |
| 20260505040509 | 16 | 199 | 0.0 | 0.0 | 0.00 | 0.00 | 0.00 | 73 | 1018.9 |
| 20260505035745 | 16 | 196 | 0.0 | 0.0 | 0.00 | 0.00 | 0.00 | 72 | 1019.0 |
| 20260505035244 | 16 | 196 | 0.0 | 0.0 | 0.00 | 0.00 | 0.00 | 72 | 1018.9 |
| 20260505034745 | 16 | 196 | 0.0 | 0.0 | 0.00 | 0.00 | 0.00 | 71 | 1019.0 |
| 20260505034459 | 16 | 196 | 0.0 | 0.0 | 0.00 | 0.00 | 0.00 | 70 | 1019.0 |
| 20260505033741 | 16 | 196 | 0.0 | 0.0 | 0.00 | 0.00 | 0.00 | 69 | 1019.0 |
| 20260505033505 | 17 | 196 | 0.0 | 4.8 | 0.00 | 0.00 | 0.00 | 69 | 1019.0 |
| 20260505032743 | 17 | 196 | 0.0 | 4.8 | 0.00 | 0.00 | 0.00 | 69 | 1019.1 |
| 20260505032507 | 17 | 196 | 0.0 | 4.8 | 0.00 | 0.00 | 0.00 | 68 | 1019.2 |
| 20260505031742 | 17 | 198 | 1.6 | 6.4 | 0.00 | 0.00 | 0.00 | 67 | 1019.0 |
| 20260505031240 | 17 | 198 | 1.6 | 6.4 | 0.00 | 0.00 | 0.00 | 67 | 1019.1 |
| 20260505030742 | 17 | 207 | 3.2 | 8.0 | 0.00 | 0.00 | 0.00 | 67 | 1019.0 |
| 20260505030241 | 17 | 198 | 1.6 | 8.0 | 0.00 | 0.00 | 0.00 | 67 | 1019.0 |
| 20260505025742 | 17 | 204 | 1.6 | 6.4 | 0.00 | 0.00 | 0.00 | 66 | 1019.0 |
| 20260505025236 | 17 | 192 | 3.2 | 6.4 | 0.00 | 0.00 | 0.00 | 66 | 1019.0 |
| 20260505024730 | 18 | 212 | 3.2 | 9.7 | 0.00 | 0.00 | 0.00 | 66 | 1018.9 |
| 20260505024224 | 18 | 205 | 1.6 | 9.7 | 0.00 | 0.00 | 0.00 | 66 | 1018.8 |
| 20260505023718 | 18 | 175 | 1.6 | 9.7 | 0.00 | 0.00 | 0.00 | 65 | 1018.9 |
| 20260505023212 | 18 | 213 | 1.6 | 9.7 | 0.00 | 0.00 | 0.00 | 65 | 1018.8 |
| 20260505022706 | 18 | 158 | 1.6 | 8.0 | 0.00 | 0.00 | 0.00 | 65 | 1018.8 |
| 20260505022200 | 18 | 228 | 1.6 | 8.0 | 0.00 | 0.00 | 0.00 | 64 | 1018.9 |
| 20260505021655 | 18 | 188 | 1.6 | 6.4 | 0.00 | 0.00 | 0.00 | 64 | 1018.9 |
| 20260505021148 | 18 | 184 | 1.6 | 8.0 | 0.00 | 0.00 | 0.00 | 63 | 1018.9 |
| 20260505020642 | 19 | 217 | 3.2 | 8.0 | 0.00 | 0.00 | 0.00 | 63 | 1018.7 |
| 20260505020144 | 19 | 189 | 3.2 | 8.0 | 0.00 | 0.00 | 0.00 | 62 | 1018.8 |
| 20260505015637 | 19 | 221 | 1.6 | 11.3 | 0.00 | 0.00 | 0.00 | 62 | 1018.8 |
| 20260505015138 | 19 | 210 | 3.2 | 11.3 | 0.00 | 0.00 | 0.00 | 62 | 1018.7 |
| 20260505014633 | 19 | 211 | 3.2 | 11.3 | 0.00 | 0.00 | 0.00 | 62 | 1018.7 |
| 20260505014139 | 19 | 219 | 4.8 | 12.9 | 0.00 | 0.00 | 0.00 | 62 | 1018.7 |
| 20260505013633 | 20 | 157 | 4.8 | 12.9 | 0.00 | 0.00 | 0.00 | 61 | 1018.6 |
| 20260505013140 | 20 | 209 | 4.8 | 12.9 | 0.00 | 0.00 | 0.00 | 61 | 1018.5 |
| 20260505012634 | 20 | 209 | 4.8 | 14.5 | 0.00 | 0.00 | 0.00 | 61 | 1018.4 |
| 20260505012140 | 20 | 200 | 4.8 | 14.5 | 0.00 | 0.00 | 0.00 | 61 | 1018.4 |
| 20260505011632 | 20 | 177 | 4.8 | 12.9 | 0.00 | 0.00 | 0.00 | 60 | 1018.2 |
| 20260505011356 | 20 | 199 | 3.2 | 11.3 | 0.00 | 0.00 | 0.00 | 60 | 1018.2 |
| 20260505010634 | 20 | 199 | 4.8 | 12.9 | 0.00 | 0.00 | 0.00 | 59 | 1018.0 |
| 20260505010359 | 20 | 179 | 4.8 | 12.9 | 0.00 | 0.00 | 0.00 | 59 | 1018.0 |
| 20260505005633 | 20 | 209 | 4.8 | 12.9 | 0.00 | 0.00 | 0.00 | 59 | 1017.9 |
| 20260505005342 | 21 | 214 | 4.8 | 12.9 | 0.00 | 0.00 | 0.00 | 58 | 1017.9 |
| 20260505005228 | 20 | 204 | 4.8 | 12.9 | 0.00 | 0.00 | 0.00 | 58 | 1017.9 |
| 20260505004404 | 21 | 324 | 1.6 | 9.7 | 0.00 | 0.00 | 0.00 | 57 | 1017.8 |
| 20260505003634 | 21 | 314 | 1.6 | 8.0 | 0.00 | 0.00 | 0.00 | 56 | 1017.7 |
| 20260505003139 | 21 | 199 | 3.2 | 9.7 | 0.00 | 0.00 | 0.00 | 56 | 1017.6 |
| 20260505002634 | 21 | 199 | 3.2 | 12.9 | 0.00 | 0.00 | 0.00 | 55 | 1017.5 |
| 20260505002406 | 21 | 190 | 3.2 | 12.9 | 0.00 | 0.00 | 0.00 | 54 | 1017.5 |
| 20260505001854 | 21 | 184 | 1.6 | 9.7 | 0.00 | 0.00 | 0.00 | 53 | 1017.4 |
| 20260505001137 | 22 | 215 | 1.6 | 9.7 | 0.00 | 0.00 | 0.00 | 52 | 1017.3 |
| 20260505000631 | 22 | 203 | 1.6 | 6.4 | 0.00 | 0.00 | 0.00 | 50 | 1017.3 |
| 20260505000136 | 22 | 200 | 0.0 | 4.8 | 0.00 | 0.00 | 0.00 | 51 | 1017.1 |
| 20260504235537 | 22 | 200 | 1.6 | 4.8 | 0.00 | 0.00 | 0.00 | 48 | 1017.0 |
| 20260504235038 | 23 | 199 | 1.6 | 6.4 | 0.00 | 0.00 | 0.00 | 47 | 1017.0 |
| 20260504234538 | 23 | 204 | 1.6 | 8.0 | 0.00 | 0.00 | 0.00 | 47 | 1017.0 |
| 20260504234037 | 23 | 199 | 3.2 | 8.0 | 0.00 | 0.00 | 0.00 | 46 | 1017.0 |
| 20260504233537 | 23 | 198 | 3.2 | 8.0 | 0.00 | 0.00 | 0.00 | 47 | 1017.0 |
| 20260504233037 | 23 | 178 | 3.2 | 8.0 | 0.00 | 0.00 | 0.00 | 46 | 1017.0 |
| 20260504232538 | 23 | 182 | 1.6 | 11.3 | 0.00 | 0.00 | 0.00 | 46 | 1017.0 |
| 20260504232031 | 23 | 192 | 3.2 | 11.3 | 0.00 | 0.00 | 0.00 | 45 | 1016.9 |
| 20260504231532 | 23 | 176 | 1.6 | 9.7 | 0.00 | 0.00 | 0.00 | 45 | 1017.0 |
| 20260504231035 | 23 | 148 | 3.2 | 9.7 | 0.00 | 0.00 | 0.00 | 44 | 1017.0 |
| 20260504230530 | 24 | 215 | 4.8 | 17.7 | 0.00 | 0.00 | 0.00 | 44 | 1016.9 |
| 20260504230033 | 24 | 221 | 4.8 | 17.7 | 0.00 | 0.00 | 0.00 | 43 | 1016.8 |
| 20260504225532 | 24 | 214 | 3.2 | 11.3 | 0.00 | 0.00 | 0.00 | 43 | 1016.8 |
| 20260504225030 | 25 | 213 | 4.8 | 11.3 | 0.00 | 0.00 | 0.00 | 42 | 1016.9 |
| 20260504224532 | 25 | 192 | 3.2 | 11.3 | 0.00 | 0.00 | 0.00 | 41 | 1016.9 |
| 20260504224508 | 25 | 166 | 4.8 | 11.3 | 0.00 | 0.00 | 0.00 | 41 | 1016.8 |
| 20260504223530 | 25 | 267 | 4.8 | 11.3 | 0.00 | 0.00 | 0.00 | 41 | 1017.0 |
| 20260504223032 | 25 | 203 | 4.8 | 12.9 | 0.00 | 0.00 | 0.00 | 40 | 1016.9 |
| 20260504222528 | 25 | 281 | 3.2 | 14.5 | 0.00 | 0.00 | 0.00 | 39 | 1016.9 |
| 20260504222028 | 25 | 200 | 3.2 | 14.5 | 0.00 | 0.00 | 0.00 | 39 | 1016.9 |
| 20260504221528 | 25 | 198 | 3.2 | 12.9 | 0.00 | 0.00 | 0.00 | 39 | 1016.7 |
| 20260504221035 | 25 | 236 | 4.8 | 19.3 | 0.00 | 0.00 | 0.00 | 38 | 1016.8 |
| 20260504220529 | 25 | 205 | 4.8 | 19.3 | 0.00 | 0.00 | 0.00 | 39 | 1016.8 |
| 20260504220036 | 25 | 154 | 4.8 | 16.1 | 0.00 | 0.00 | 0.00 | 39 | 1016.7 |
| 20260504215517 | 25 | 193 | 4.8 | 16.1 | 0.00 | 0.00 | 0.00 | 39 | 1016.8 |
| 20260504215011 | 25 | 222 | 4.8 | 16.1 | 0.00 | 0.00 | 0.00 | 40 | 1016.7 |
| 20260504214505 | 25 | 208 | 6.4 | 17.7 | 0.00 | 0.00 | 0.00 | 40 | 1016.6 |
| 20260504214000 | 25 | 219 | 6.4 | 17.7 | 0.00 | 0.00 | 0.00 | 39 | 1016.7 |
| 20260504213713 | 25 | 217 | 6.4 | 22.5 | 0.00 | 0.00 | 0.00 | 40 | 1016.7 |
| 20260504212947 | 25 | 189 | 6.4 | 22.5 | 0.00 | 0.00 | 0.00 | 40 | 1016.7 |
| 20260504212441 | 26 | 212 | 6.4 | 19.3 | 0.00 | 0.00 | 0.00 | 39 | 1016.7 |
| 20260504211936 | 26 | 190 | 4.8 | 19.3 | 0.00 | 0.00 | 0.00 | 39 | 1016.7 |
| 20260504211429 | 26 | 173 | 3.2 | 14.5 | 0.00 | 0.00 | 0.00 | 40 | 1016.7 |
| 20260504210923 | 26 | 205 | 3.2 | 11.3 | 0.00 | 0.00 | 0.00 | 39 | 1016.6 |
| 20260504210647 | 26 | 328 | 4.8 | 14.5 | 0.00 | 0.00 | 0.00 | 37 | 1016.6 |
| 20260504205912 | 26 | 232 | 4.8 | 14.5 | 0.00 | 0.00 | 0.00 | 37 | 1016.7 |
| 20260504205405 | 26 | 184 | 4.8 | 12.9 | 0.00 | 0.00 | 0.00 | 38 | 1016.7 |
| 20260504204859 | 26 | 158 | 4.8 | 12.9 | 0.00 | 0.00 | 0.00 | 37 | 1016.8 |
| 20260504204354 | 26 | 210 | 4.8 | 11.3 | 0.00 | 0.00 | 0.00 | 38 | 1016.9 |
| 20260504203848 | 26 | 199 | 4.8 | 14.5 | 0.00 | 0.00 | 0.00 | 38 | 1017.0 |
| 20260504203341 | 26 | 191 | 4.8 | 14.5 | 0.00 | 0.00 | 0.00 | 36 | 1017.1 |
| 20260504202835 | 26 | 243 | 4.8 | 20.9 | 0.00 | 0.00 | 0.00 | 37 | 1017.2 |
| 20260504202329 | 26 | 211 | 4.8 | 20.9 | 0.00 | 0.00 | 0.00 | 37 | 1017.2 |
| 20260504201823 | 26 | 159 | 4.8 | 12.9 | 0.00 | 0.00 | 0.00 | 37 | 1017.3 |
| 20260504201317 | 26 | 333 | 3.2 | 14.5 | 0.00 | 0.00 | 0.00 | 37 | 1017.3 |
| 20260504200811 | 26 | 207 | 1.6 | 12.9 | 0.00 | 0.00 | 0.00 | 36 | 1017.3 |
| 20260504200527 | 26 | 195 | 3.2 | 14.5 | 0.00 | 0.00 | 0.00 | 37 | 1017.4 |
| 20260504195800 | 26 | 210 | 4.8 | 14.5 | 0.00 | 0.00 | 0.00 | 36 | 1017.6 |
| 20260504195254 | 26 | 194 | 4.8 | 12.9 | 0.00 | 0.00 | 0.00 | 36 | 1017.5 |
| 20260504194747 | 26 | 333 | 3.2 | 12.9 | 0.00 | 0.00 | 0.00 | 37 | 1017.5 |
| 20260504194241 | 26 | 192 | 3.2 | 17.7 | 0.00 | 0.00 | 0.00 | 40 | 1017.7 |
| 20260504193954 | 26 | 223 | 4.8 | 17.7 | 0.00 | 0.00 | 0.00 | 37 | 1017.6 |
| 20260504193457 | 26 | 323 | 3.2 | 9.7 | 0.00 | 0.00 | 0.00 | 38 | 1017.7 |
| 20260504192723 | 26 | 196 | 4.8 | 11.3 | 0.00 | 0.00 | 0.00 | 38 | 1017.7 |
| 20260504192445 | 26 | 246 | 4.8 | 11.3 | 0.00 | 0.00 | 0.00 | 37 | 1017.7 |
| 20260504191711 | 26 | 186 | 3.2 | 11.3 | 0.00 | 0.00 | 0.00 | 37 | 1017.8 |
| 20260504191205 | 26 | 159 | 3.2 | 11.3 | 0.00 | 0.00 | 0.00 | 36 | 1017.9 |
| 20260504190659 | 26 | 231 | 3.2 | 11.3 | 0.00 | 0.00 | 0.00 | 38 | 1018.0 |
| 20260504190153 | 26 | 322 | 3.2 | 14.5 | 0.00 | 0.00 | 0.00 | 40 | 1018.0 |
| 20260504185647 | 26 | 240 | 3.2 | 14.5 | 0.00 | 0.00 | 0.00 | 38 | 1018.0 |
| 20260504185141 | 26 | 188 | 4.8 | 14.5 | 0.00 | 0.00 | 0.00 | 39 | 1018.0 |
| 20260504184635 | 26 | 153 | 4.8 | 14.5 | 0.00 | 0.00 | 0.00 | 38 | 1018.2 |
| 20260504184129 | 26 | 166 | 3.2 | 11.3 | 0.00 | 0.00 | 0.00 | 37 | 1018.3 |
| 20260504183844 | 26 | 175 | 3.2 | 11.3 | 0.00 | 0.00 | 0.00 | 38 | 1018.5 |
| 20260504183341 | 26 | 250 | 4.8 | 16.1 | 0.00 | 0.00 | 0.00 | 43 | 1018.5 |
| 20260504182618 | 26 | 202 | 4.8 | 16.1 | 0.00 | 0.00 | 0.00 | 40 | 1018.5 |
| 20260504182118 | 26 | 223 | 3.2 | 12.9 | 0.00 | 0.00 | 0.00 | 39 | 1018.6 |
| 20260504181619 | 26 | 342 | 3.2 | 14.5 | 0.00 | 0.00 | 0.00 | 43 | 1018.6 |
| 20260504181118 | 26 | 344 | 3.2 | 14.5 | 0.00 | 0.00 | 0.00 | 44 | 1018.7 |
| 20260504180617 | 25 | 267 | 4.8 | 12.9 | 0.00 | 0.00 | 0.00 | 40 | 1018.6 |
| 20260504180114 | 25 | 170 | 4.8 | 12.9 | 0.00 | 0.00 | 0.00 | 41 | 1018.6 |
| 20260504180053 | 25 | 207 | 4.8 | 19.3 | 0.00 | 0.00 | 0.00 | 40 | 1018.6 |
| 20260504175115 | 25 | 219 | 4.8 | 19.3 | 0.00 | 0.00 | 0.00 | 39 | 1018.7 |
| 20260504174613 | 25 | 189 | 4.8 | 14.5 | 0.00 | 0.00 | 0.00 | 39 | 1018.7 |
| 20260504174113 | 26 | 211 | 3.2 | 12.9 | 0.00 | 0.00 | 0.00 | 40 | 1018.7 |
| 20260504173828 | 25 | 227 | 3.2 | 16.1 | 0.00 | 0.00 | 0.00 | 43 | 1018.8 |
| 20260504173111 | 25 | 206 | 4.8 | 16.1 | 0.00 | 0.00 | 0.00 | 42 | 1018.8 |
| 20260504172612 | 25 | 208 | 3.2 | 14.5 | 0.00 | 0.00 | 0.00 | 41 | 1018.9 |
| 20260504172113 | 26 | 232 | 3.2 | 9.7 | 0.00 | 0.00 | 0.00 | 38 | 1018.9 |
| 20260504171827 | 26 | 209 | 3.2 | 11.3 | 0.00 | 0.00 | 0.00 | 39 | 1019.0 |
| 20260504171109 | 26 | 205 | 1.6 | 11.3 | 0.00 | 0.00 | 0.00 | 41 | 1018.9 |
| 20260504170609 | 26 | 209 | 1.6 | 11.3 | 0.00 | 0.00 | 0.00 | 42 | 1019.0 |
| 20260504170109 | 26 | 217 | 1.6 | 11.3 | 0.00 | 0.00 | 0.00 | 42 | 1019.2 |
| 20260504160106 | 25 | 248 | 3.2 | 8.0 | 0.00 | 0.00 | 0.00 | 46 | 1019.7 |
| 20260504151057 | 22 | 292 | 1.6 | 6.4 | 0.00 | 0.00 | 0.00 | 55 | 1020.1 |
| 20260504150555 | 21 | 304 | 1.6 | 8.0 | 0.00 | 0.00 | 0.00 | 59 | 1020.1 |